Terminal Aerodrome Forecast
Issued by NWS

Home | Current Version | Previous Version | Graphics & Text | Print | Product List | Glossary On
Versions: 1 2 3 4 5 6 7 8 9 10 11 12 13 14 15 16 17 18 19 20 21 22 23 24 25 26 27 28 29 30 31 32 33 34 35
000
FTUS43 KLOT 271500 AAB
TAFORD
TAF AMD
KORD 271559Z 2716/2818 12005KT P6SM SCT250
     FM271900 09008KT P6SM SCT250
      TEMPO 2719/2721 09011KT
     FM280100 VRB03KT P6SM SCT300=

USA.gov is the U.S. government's official web portal to all federal, state and local government web resources and services.